Hourly Weather Roundup
Issued by NWS Central Illinois

Home | Current Version | Previous Version | Text Only | Print | Product List | Glossary On
Versions: 1 2 3 4 5 6 7 8 9 10 11 12 13 14 15 16 17 18 19 20 21 22 23 24 25 26 27 28 29 30 31 32 33 34 35 36 37 38 39 40 41 42 43 44 45 46 47 48 49 50
000
NZUS43 KILX 111310
HWRILX

AREA WEATHER ROUNDUP
NATIONAL WEATHER SERVICE, LINCOLN IL
700 AM CST THU FEB 11 2016


CITY           SKY/WX    TMP DP  RH WIND       PRES   REMARKS
BLOOMINGTON    CLOUDY     9   5  83 N6        30.29R WCI  -1
CHAMPAIGN      CLOUDY     8   3  80 N6        30.28R WCI  -2
DANVILLE       CLEAR      7   0  72 NW6       30.25R WCI  -3
DECATUR        CLOUDY    10   3  73 NE7       30.29R WCI  -1
EFFINGHAM      CLOUDY    18  10  69 N3        30.31R
FLORA          CLOUDY    22  15  71 N8        30.29R WCI  13
GALESBURG      CLOUDY     3   0  87 NW5       30.31R WCI  -7
JACKSONVILLE   CLOUDY    17   7  63 NE7       30.31R WCI   8
LACON          CLEAR      8   2  76 CALM      30.31R
LAWRENCEVILLE  CLOUDY    19  10  68 N9        30.30R WCI   8
LITCHFIELD     CLOUDY    18   9  67 NE9       30.28R WCI   7
$$


CITY           SKY/WX    TMP DP  RH WIND       PRES   REMARKS
LINCOLN        CLOUDY    11   6  83 CALM      30.31R
MACOMB         CLOUDY     9   4  82 N7        30.33R WCI  -2
MATTOON        CLOUDY    11   5  77 N6        30.27R WCI   1
MT CARMEL AP   CLOUDY    21  14  73 N5        30.29R WCI  15
OLNEY-NOBLE AP CLOUDY    21  12  68 NE6       30.29R WCI  14
PARIS          CLOUDY    11   6  82 NW3       30.29R
PEORIA         CLEAR      9   2  73 N5        30.32R WCI   1
PONTIAC        CLEAR     10   5  81 CALM      30.31R
RANTOUL        CLOUDY    12   4  70 N8        30.28R WCI   0
ROBINSON       CLEAR     15   7  73 N3        30.31R
SPRINGFIELD    CLOUDY    11   5  77 N6        30.31R WCI   1
TAYLORVILLE    CLOUDY    14   9  79 N6        30.30R WCI   5
$$

...REGIONAL REPORTS...


CITY           SKY/WX    TMP DP  RH WIND       PRES   REMARKS
CHICAGO O`HARE PTCLDY     7  -2  66 W8        30.27R WCI  -6
KANKAKEE       CLEAR     10   2  69 NW6       30.29R WCI   1
MOLINE         CLOUDY    10   0  63 N6        30.32R WCI   0
MOUNT STERLING CLOUDY     8   2  75 N7        30.30R WCI  -3
MOUNT VERNON   CLOUDY    21  16  79 NE3       30.28R
PITTSFIELD     CLOUDY    18   9  67 N5        30.30R WCI  11
QUINCY         CLOUDY     9   3  77 N8        30.30R WCI  -3
ROCKFORD       CLEAR      6  -2  69 NW5       30.32R WCI  -3
$$


CITY           SKY/WX    TMP DP  RH WIND       PRES   REMARKS
BURLINGTON     PTCLDY     8   3  80 N6        30.31R WCI  -2
CEDAR RAPIDS   CLOUDY     3   0  87 NW5       30.31R WCI  -6
DES MOINES     PTCLDY     7  -2  66 NE9       30.32R WCI  -7
KIRKSVILLE     CLOUDY    13   7  77 NE10      30.29R WCI   0
OTTUMWA        CLOUDY     5   1  83 N6        30.33R WCI  -6
ST LOUIS       CLOUDY    23  15  71 NE7       30.29R WCI  15
$$


CITY           SKY/WX    TMP DP  RH WIND       PRES   REMARKS
TERRE HAUTE    CLOUDY     8   5  87 N3        30.28R
EVANSVILLE       N/A     24  16  71 NE5       30.29R WCI  18
INDIANAPOLIS   PTCLDY    10   4  76 NW3       30.24R
LAFAYETTE      CLEAR      8   1  73 W5        30.27R WCI   0
MADISON        CLEAR      1  -5  75 CALM      30.29R
MILWAUKEE      CLEAR      5  -4  66 NW8       30.27R WCI  -8
$$





USA.gov is the U.S. government's official web portal to all federal, state and local government web resources and services.